CAPE
0 0 0 0 0 0 0 0 0 0 0 0 0 0 0 0 19 92 334 176 66 0 0 0 0 0 0 0 0 0 0 0
0 0 0 0 0 0 0 0 0 0 0 0 0 0 0 0 0 2 298 132 75 16 0 0 0 0 0 25 4 0 0 13
0 0 0 0 0 0 0 0 0 0 0 0 0 0 0 0 0 32 11 207 65 64 0 0 0 0 0 46 65 4 1 41
0 0 0 0 0 0 0 0 0 0 0 0 0 2 0 3 0 4 55 68 109 59 0 0 0 0 0 0 0 36 14 5
0 0 0 0 0 0 0 0 0 0 0 0 0 0 0 4 4 3 1 0 9 19 17 9 0 0 0 0 2 36 0 13
0 0 0 0 0 0 0 0 0 0 0 0 0 1 0 0 0 0 1 4 2 0 0 1 10 1 49 0 0 29 18 1
0 0 0 0 0 0 0 0 0 0 0 0 0 1 0 0 0 0 1 1 3 5 4 2 3 12 23 36 12 0 99 134
0 0 0 0 0 0 0 0 0 0 0 0 0 0 0 0 0 2 6 6 3 1 3 3 7 7 41 56 50 64 63 146
0 0 0 0 0 0 0 0 0 0 0 0 0 0 0 0 0 0 0 1 7 4 1 3 5 11 5 5 71 77 260 190
0 0 0 0 0 0 0 0 0 0 0 0 0 0 0 0 0 0 0 0 0 3 0 0 1 0 1 23 286 122 111 340
0 0 0 0 0 0 0 0 0 0 0 0 0 0 0 0 0 0 0 0 0 0 0 0 0 0 1 6 5 17 29 63
0 0 0 0 0 0 0 0 0 0 0 0 0 0 0 0 0 0 0 0 0 0 0 0 0 0 0 8 3 3 3 3
0 0 0 0 0 0 0 0 0 0 0 0 0 0 0 0 0 0 0 0 0 0 0 0 0 0 0 1 5 0 4 9
0 0 0 0 0 0 0 0 0 0 0 0 0 0 0 0 0 0 0 0 0 0 0 0 0 0 0 0 5 3 2 2
0 0 0 0 0 0 0 0 0 0 0 0 0 0 0 0 0 0 0 0 0 0 0 0 0 0 0 0 0 1 2 1
0 0 0 0 0 0 0 0 0 0 0 0 1 1 0 0 0 0 0 0 0 0 0 0 0 0 0 0 0 0 2 2
0 0 0 0 0 0 0 0 0 0 1 5 9 9 8 4 0 0 0 0 0 0 0 2 4 0 0 0 0 0 2 1
0 0 0 0 0 0 0 0 0 3 4 7 22 19 17 8 7 13 5 1 0 0 0 0 15 3 0 0 0 0 2 1
0 0 0 0 0 0 0 0 10 10 4 0 1 9 10 17 2 1 4 26 28 7 1 1 0 0 0 0 0 0 3 5
CIN
0 0 0 0 0 0 0 0 0 0 0 0 0 0 0 0 -400 -367 -251 -222 -242 0 0 0 0 0 0 0 0 0 0 0
0 0 0 0 0 0 0 0 0 0 0 0 0 0 0 0 0 -176 -332 -352 -304 -86 0 0 0 0 0 -321 -69 0 0 -148
0 0 0 0 0 0 0 0 0 0 0 0 0 0 0 0 0 -513 -652 -408 -381 -281 0 0 0 0 0 -337 -334 -45 -193 -303
0 0 0 0 0 0 0 0 0 0 0 0 0 0 0 0 0 -324 -544 -481 -412 -375 0 0 0 0 0 0 0 -320 -339 -334
0 0 0 0 0 0 0 0 0 0 0 0 0 0 0 0 0 0 0 0 -397 -451 -412 -326 0 0 0 0 -31 -267 -17 -282
0 0 0 0 0 0 0 0 0 0 0 0 0 0 0 0 0 0 0 0 0 0 0 -46 -391 -101 -343 0 0 -273 -242 -42
0 0 0 0 0 0 0 0 0 0 0 0 0 0 0 0 0 0 0 0 0 0 0 0 0 -264 -352 -370 -324 0 -239 -226
0 0 0 0 0 0 0 0 0 0 0 0 0 0 0 0 0 0 0 0 0 0 0 0 0 0 -269 -270 -353 -265 -297 -287
0 0 0 0 0 0 0 0 0 0 0 0 0 0 0 0 0 0 0 0 0 0 0 0 0 0 0 -76 -282 -314 -227 -278
0 0 0 0 0 0 0 0 0 0 0 0 0 0 0 0 0 0 0 0 0 0 0 0 0 0 0 -51 -140 -273 -281 -214
0 0 0 0 0 0 0 0 0 0 0 0 0 0 0 0 0 0 0 0 0 0 0 0 0 0 0 0 -53 -307 -335 -284
0 0 0 0 0 0 0 0 0 0 0 0 0 0 0 0 0 0 0 0 0 0 0 0 0 0 0 0 0 0 0 0
0 0 0 0 0 0 0 0 0 0 0 0 0 0 0 0 0 0 0 0 0 0 0 0 0 0 0 0 0 0 0 0
0 0 0 0 0 0 0 0 0 0 0 0 0 0 0 0 0 0 0 0 0 0 0 0 0 0 0 0 0 0 0 0
0 0 0 0 0 0 0 0 0 0 0 0 0 0 0 0 0 0 0 0 0 0 0 0 0 0 0 0 0 0 0 0
0 0 0 0 0 0 0 0 0 0 0 0 -2 -2 0 0 0 0 0 0 0 0 -1 0 0 0 0 0 0 0 0 0
0 0 0 0 0 0 0 0 0 0 -10 -3 -1 -1 -1 -2 -2 0 0 0 0 0 0 0 0 0 0 0 0 0 0 0
0 0 0 0 0 0 0 0 0 -20 -11 -1 0 0 0 -2 -8 -7 -14 -14 0 0 0 0 0 -40 0 0 0 0 0 0
0 0 0 0 0 0 0 0 -34 -26 -18 0 -3 0 0 0 0 0 -8 0 0 0 0 0 0 0 0 0 0 0 0 0
Wind_Speed
4 5 2 4 5 3 9 2 4 2 4 6 18 19 21 18 2 5 9 13 13 11 15 15 16 17 18 17 16 13 14 11
6 5 7 8 1 4 4 4 2 3 4 4 17 20 20 19 16 11 7 7 10 9 15 14 15 16 17 17 18 16 16 13
6 9 6 7 6 6 6 3 7 4 2 7 7 11 17 18 17 16 9 9 8 6 10 14 13 13 15 14 15 13 12 11
2 5 4 5 3 3 5 4 2 4 2 6 10 13 16 17 18 20 18 6 5 5 6 6 7 9 10 11 12 13 13 13
4 6 6 7 5 4 4 3 1 5 4 8 11 13 16 17 17 18 20 18 14 11 5 5 5 5 7 9 9 10 7 10
7 5 3 4 4 4 5 4 4 1 3 6 12 15 16 17 16 16 16 16 14 14 12 9 6 3 4 8 7 8 10 11
5 5 4 3 3 1 1 3 4 6 2 3 6 9 10 11 15 17 17 17 15 14 12 11 10 8 7 5 12 11 13 13
3 3 2 4 6 6 4 3 3 6 3 3 3 4 9 11 13 15 16 16 15 14 14 13 11 9 9 8 6 10 14 16
3 2 2 3 1 3 2 3 2 1 0 4 4 6 6 7 9 11 13 14 15 13 12 12 12 12 11 11 7 5 9 11
3 2 4 4 3 5 4 1 1 4 2 3 3 5 0 4 7 10 12 13 13 12 12 12 11 12 13 11 3 1 3 7
4 2 3 1 2 2 4 6 2 2 3 5 11 5 5 3 8 8 9 11 10 11 11 10 10 12 13 11 10 8 7 7
2 3 4 5 3 3 1 5 4 4 4 4 10 3 2 8 13 10 12 11 12 13 12 10 10 8 10 9 7 6 8 8
3 2 5 2 4 2 4 2 1 2 1 0 2 5 13 13 13 11 9 13 14 12 11 11 9 7 7 7 7 8 8 10
3 3 7 1 1 4 2 1 3 2 2 5 6 9 12 17 15 11 15 13 11 13 12 11 8 7 8 7 6 9 8 7
7 5 2 1 2 1 2 3 3 3 4 7 10 10 12 14 16 15 15 14 11 9 15 15 10 5 7 7 7 7 9 8
3 2 5 5 2 3 4 3 3 4 6 7 11 12 15 15 15 15 14 12 14 14 11 15 13 8 4 5 6 9 9 9
5 7 3 5 6 5 5 3 5 5 9 12 11 12 13 14 15 14 14 13 12 15 14 14 14 9 5 3 5 7 8 8
7 8 6 4 6 6 4 4 5 6 11 11 10 11 12 13 14 14 13 14 13 15 16 16 14 8 5 4 4 5 8 7
5 6 7 4 5 5 4 6 5 4 7 10 11 10 12 12 13 17 15 14 13 16 16 15 7 7 4 5 7 9 7 7
Wind_Direction
60 25 49 170 76 169 107 19 88 245 324 328 353 2 2 11 33 232 207 197 190 175 187 187 188 190 191 192 197 189 195 193
304 25 23 93 94 71 10 125 146 347 66 311 342 344 350 0 354 324 234 186 187 179 185 192 194 191 193 196 196 193 194 192
35 14 303 9 16 30 108 104 151 140 282 10 333 351 353 358 355 342 270 201 196 200 187 190 192 193 197 196 198 194 194 208
71 290 34 67 68 101 118 212 55 121 215 16 15 15 11 8 12 12 23 35 96 113 146 168 169 180 184 197 201 204 197 192
11 333 1 52 341 92 105 79 27 127 226 45 14 18 11 14 21 23 25 25 30 35 54 105 125 173 170 184 197 198 179 198
164 142 149 71 359 24 95 88 154 201 268 6 19 14 4 7 18 30 30 22 23 22 18 16 10 338 194 185 181 181 189 198
65 86 91 143 161 342 352 165 145 204 301 60 22 26 7 1 13 23 22 21 17 12 9 5 9 6 349 257 196 191 198 198
75 63 118 201 225 205 249 299 212 159 239 55 328 50 22 10 7 12 11 12 9 7 2 0 348 338 335 328 299 216 205 207
161 359 90 32 235 169 126 59 80 214 125 359 6 34 28 7 12 2 354 353 358 358 352 344 341 336 324 311 296 287 230 212
163 1 189 252 247 228 155 125 145 120 114 328 321 294 280 21 14 355 344 343 340 341 342 337 328 337 329 326 322 9 290 260
124 148 296 307 346 149 174 243 207 134 51 353 330 297 208 67 16 337 329 323 320 324 322 325 331 334 333 336 15 15 10 353
131 126 189 221 220 332 192 269 55 70 73 24 343 340 228 351 340 327 324 320 319 321 316 321 327 329 332 329 342 343 330 328
155 164 288 132 279 282 151 246 32 42 329 106 238 241 294 313 314 309 305 310 315 314 310 308 312 318 321 317 313 324 312 307
122 110 260 226 178 186 176 270 303 313 252 283 262 274 283 301 305 306 312 313 315 313 305 302 300 307 310 311 314 311 316 310
180 212 206 163 190 221 176 190 259 272 280 276 283 278 281 288 296 300 301 296 305 297 301 299 293 270 295 304 317 313 301 299
49 239 208 193 224 201 182 218 248 265 277 274 276 277 287 289 289 292 294 294 299 300 285 286 294 276 251 295 312 314 312 311
258 272 251 242 195 179 191 214 261 279 310 310 300 292 288 285 283 280 282 285 279 286 286 275 277 275 293 295 321 309 302 301
216 204 155 207 191 180 197 239 261 298 316 319 306 293 292 287 280 275 275 278 275 272 278 282 266 247 283 308 319 301 302 296
202 180 180 139 168 182 209 244 255 277 302 312 313 302 297 306 293 275 278 284 285 278 271 275 265 284 295 317 321 306 283 271